COSMOS 1275 DEB, 17640

Orbit data source: Space-Track

COSMOS 1275 DEB, 17640 is space debris in LEO originally from a launch on Thu, 04 Jun 1981 UTC launched from the Plesetsk Missile And Space Complex (PKMTR). Debris objects in space refer to the collection of defunct objects orbiting the Earth. Examples of debris include non-operational satellites, rocket bodies, and fragments generated from explosions, collisions, or faulty payload assembly.

Loading next visibility...
Identifier
17640, 1981-053LK
Orbit
LEO
Country
Flag of CISCIS
Related business
Manufacturer
Unknown
Mission
Spacecraft
Bus & Motor
Unknown
Mass
Unknown
Launch date (UTC)
1981-06-04 (45 years ago)
Launch vehicle
Unknown
Launch site
Plesetsk Missile And Space Complex (PKMTR)
Object type
Payload
Rocket body
Debris
Shape & HBR
Unknown shape, 0.1 m
Radar Cross Section
Small (<0.1 m²)

Expand to show TLE details & history
Last TLE update: 12 hours ago

TLE from 12 hours ago
0 COSMOS 1275 DEB
1 17640U 81053LK  26037.11772387  .00005808  00000-0  20604-2 0  9994
2 17640  82.9084  89.8003 0023579 213.5354 146.4343 14.34193104792382
Epoch: 2026-02-06T02:49Z
TLE epoch observation values (Epoch: 2026-02-06T02:49:31.342Z)
Latitude
-0.00009°
Longitude
-88.8405°
Altitude
794.805 km
Speed
7.449 km/s
True Right ascension
05h 59m 12s
True Declination
0° 00' 00"
Sunlit
Object was in full shadow at epoch
Visualization orbit readout
Latitude
Unknown
Longitude
Unknown
Altitude
Unknown
Speed
Unknown
Apparent Right ascension
Unknown
Apparent Declination
Unknown
Sunlit
N/A
Visualization observer readout
Local Sidereal Time
17:21:28
Azimuth
Unknown
Elevation
Unknown
Doppler factor
Unknown
Orbital elements
Apogee altitude
791.684 km
Perigee altitude
757.952 km
Semi-major axis
7,152.955 km
Eccentricity
0.00236
Inclination
82.9084°
RAAN
89.8003°
Arg. of periapsis
213.5354°
True anomaly
146.58332°
Mean anomaly
146.4343°
Eccentric anomaly
146.50885°
Mean motion
3.58769 °/min
Orbital period
100.34 mins
BSTAR
0.0020604
Loading maneuver chart data...
Computing Atmospheric mass density...
Loading historical data...
Loading historical data...
Loading historical data...
Loading historical data...
Loading historical data...
Loading historical data...
Loading historical data...

Documentation

Showing up to 5 results
|